SCP
0 0 0 0 0 0 0 0 0 0 0 0 0 0 0 0 0 0 0 0 0 0 0 0 0 0 0 0 0 0 0 0 0 0 0 0 0 0 0 0 0 0 0
0 0 0 0 0 0 0 0 0 0 0 0 0 0 0 0 0 0 0 0 0 0 0 0 0 0 0 0 0 0 0 0 0 0 0 0 0 0 0 0 0 0 0
0 0 0 0 0 0 0 0 0 0 0 0 0 0 0 0 0 0 0 0 0 0 0 0 0 0 0 0 0 0 0 0 0 0 0 0 0 0 0 0 0 0 0
0 0 0 0 0 0 0 0 0 0 0 0 0 0 0 0 0 0 0 0 0 0 0 0 0 0 0 0 0 0 0 0 0 0 0 0 0 0 0 0 0 0 0
0 0 0 0 0 0 0 0 0 0 0 0 0 0 0 0 0 0 0 0 0 0 0 0 0 0 0 0 0 0 0 0 0 0 0 0 0 0 0 0 0 0 0
0 0 0 0 0 0 0 0 0 0 0 0 0 0 0 0 0 0 0 0 0 0 0 0 0 0 0 0 0 0 0 0 0 0 0 0 0 0 0 0 0 0 0
0 0 0 0 0 0 0 0 0 0 0 0 0 0 0 0 0 0 0 0 0 0 0 0 0 0 0 0 0 0 0 0 0 0 0 0 0 0 0 0 0 0 0
0 0 0 0 0 0 0 0 0 0 0 0 0 0 0 0 0 0 0 0 0 0 0 0 0 0 0 0 0 0 0 0 0 0 0 0 0 0 0 0 0 0 0
0 0 0 0 0 0 0 0 0 0 0 0 0 0 0 0 0 0 0 0 0 0 0 0 0 0 0 0 0 0 0 0 0 0 0 0 0 0 0 0 0 0 0
0 0 0 0 0 0 0 0 0 0 0 0 0 0 0 0 0 0 0 0 0 0 0 0 0 0 0 0 0 0 0 0 0 0 0 0 0 0 0 0 0 0 0
0 0 0 0 0 0 0 0 0 0 0 0 0 0 0 0 0 0 0 0 0 0 0 0 0 0 0 0 0 0 0 0 0 0 0 0 0 0 0 0 0 0 0
0 0 0 0 0 0 0 0 0 0 0 0 0 0 0 0 0 0 0 0 0 0 0 0 0 0 0 0 0 0 0 0 0 0 0 0 0 0 0 0 0 0 0
0 0 0 0 0 0 0 0 0 0 0 0 0 0 0 0 0 0 0 0 0 0 0 0 0 0 0 0 0 0 0 0 0 0 0 0 0 0 0 0 0 0 0
0 0 0 0 0 0 0 0 0 0 0 0 0 0 0 0 0 0 0 0 0 0 0 0 0 0 0 0 0 0 0 0 0 0 0 0 0 0 0 0 0 0 0
0 0 0 0 0 0 0 0 0 0 0 0 0 0 0 0 0 0 0 0 0 0 0 0 0 0 0 0 0 0 0 0 0 0 0 0 0 0 0 0 0 0 0
0 0 0 0 0 0 0 0 0 0 0 0 0 0 0 0 0 0 0 0 0 0 0 0 0 0 0 0 0 0 0 0 0 0 0 0 0 0 0 0 0 0 0
0 0 0 0 0 0 0 0 0 0 0 0 0 0 0 0 0 0 0 0 0 0 0 0 0 0 0 0 0 0 0 0 0 0 0 0 0 0 0 0 0 0 0
0 0 0 0 0 0 0 0 0 0 0 0 0 0 0 0 0 0 0 0 0 0 0 0 0 0 0 0 0 0 0 0 0 0 0 0 0 0 0 0 0 0 0
0 0 0 0 0 0 0 0 0 0 0 0 0 0 0 0 0 0 0 0 0 0 0 0 0 0 0 0 0 0 0 0 0 0 0 0 0 0 0 0 0 0 0
0 0 0 0 0 0 0 0 0 0 0 0 0 0 0 0 0 0 0 0 0 0 0 0 0 0 0 0 0 0 0 0 0 0 0 0 0 0 0 0 0 0 0
0 0 0 0 0 0 0 0 0 0 0 0 0 0 0 0 0 0 0 0 0 0 0 0 0 0 0 0 0 0 0 0 0 0 0 0 0 0 0 0 0 0 0
0 0 0 0 0 0 0 0 0 0 0 0 0 0 0 0 0 0 0 0 0 0 0 0 0 0 0 0 0 0 0 0 0 0 0 0 0 0 0 0 0 0 0
0 0 0 0 0 0 0 0 0 0 0 0 0 0 0 0 0 0 0 0 0 0 0 0 0 0 0 0 0 0 0 0 0 0 0 0 0 0 0 0 0 0 0
0 0 0 0 0 0 0 0 0 0 0 0 0 0 0 0 0 0 0 0 0 0 0 0 0 0 0 0 0 0 0 0 0 0 0 0 0 0 0 0 0 0 0
0 0 0 0 0 0 0 0 0 0 0 0 0 0 0 0 0 0 0 0 0 0 0 0 0 0 0 0 0 0 0 0 0 0 0 0 0 0 0 0 0 0 0
0 0 0 0 0 0 0 0 0 0 0 0 0 0 0 0 0 0 0 0 0 0 0 0 0 0 0 0 0 0 0 0 0 0 0 0 0 0 0 0 0 0 0
Wind_Speed_500mb
1 5 8 11 15 19 22 26 30 30 27 24 22 23 25 27 30 32 34 37 40 43 44 45 46 47 46 44 43 45 45 47 55 67 68 65 67 74 57 74 75 74 72
2 6 9 12 17 22 26 29 29 28 25 22 21 23 24 26 29 32 36 42 45 47 47 47 48 48 47 48 47 48 47 50 50 65 65 62 66 72 61 78 78 63 69
6 9 12 15 20 23 26 28 28 26 24 23 23 23 25 27 31 35 38 41 45 49 50 51 51 50 50 50 47 44 48 43 46 58 70 61 60 57 73 81 78 68 69
10 13 15 18 22 26 29 31 30 27 26 26 26 27 28 31 34 37 41 46 49 52 53 52 51 50 49 48 38 43 42 47 48 58 56 55 63 52 70 80 91 70 80
15 17 18 21 24 27 30 31 30 28 28 29 30 31 32 34 39 44 48 50 54 55 52 50 50 49 44 41 35 42 41 45 57 46 55 64 54 60 70 75 76 88 78
19 20 22 25 28 31 33 33 31 31 31 32 32 33 36 40 44 46 49 54 56 55 54 50 48 47 47 39 43 35 36 48 46 54 64 57 52 63 76 67 71 73 77
22 24 26 29 30 33 35 34 33 33 33 34 34 38 41 45 46 49 53 57 56 54 50 49 48 44 39 49 41 41 46 49 43 52 53 46 58 65 67 66 64 58 71
26 28 28 31 33 36 36 36 36 36 36 37 40 43 45 46 49 52 55 56 54 52 49 48 45 44 45 40 42 45 49 59 59 48 42 51 56 65 60 59 63 75 76
29 30 31 32 35 37 38 39 38 38 39 40 43 44 45 48 51 52 54 54 54 52 50 48 44 48 48 39 41 51 59 64 61 46 49 60 64 62 61 61 65 63 80
30 31 32 34 37 39 39 39 40 41 41 40 41 43 48 49 49 51 52 52 52 51 49 43 48 45 41 36 43 54 65 66 60 71 70 65 59 57 54 52 56 54 58
32 32 32 35 39 41 43 45 45 42 39 39 42 43 47 49 50 49 50 50 48 48 50 52 49 45 35 41 41 55 60 57 66 65 68 66 62 56 53 51 48 50 53
33 31 33 38 42 46 48 46 44 42 42 42 43 43 45 49 49 48 49 50 47 45 49 50 46 42 43 46 54 60 55 58 63 66 66 64 63 60 57 54 51 48 49
31 30 34 42 46 46 47 47 47 46 46 45 44 43 46 49 49 50 51 51 48 44 46 43 50 54 58 62 59 58 61 61 64 66 66 64 61 59 59 58 55 54 52
30 32 38 42 44 47 49 49 50 48 47 46 44 45 47 50 51 52 54 53 50 49 54 56 55 58 59 59 60 56 56 57 60 64 66 66 66 62 59 59 61 59 62
34 37 40 43 46 48 48 48 48 46 47 47 45 46 48 49 50 55 57 51 46 47 56 57 59 59 60 58 56 56 56 56 59 62 65 67 68 67 63 61 60 60 60
40 42 44 47 48 49 50 49 48 48 49 49 46 46 48 51 51 54 53 52 39 51 56 59 60 61 63 65 66 66 61 61 60 63 65 67 69 69 68 65 62 62 63
48 49 50 52 53 52 50 49 47 45 45 46 45 45 44 48 50 52 51 45 48 52 54 56 59 62 65 67 67 68 69 64 64 63 64 65 66 68 66 66 65 64 65
56 58 57 56 54 53 51 48 47 44 45 45 44 44 42 46 49 49 49 51 48 47 54 56 58 62 65 68 67 68 68 66 64 64 63 63 64 66 67 64 62 64 64
61 61 58 56 55 54 51 48 45 45 45 44 43 41 42 46 49 48 48 49 53 53 55 56 59 64 66 67 66 64 64 63 63 63 62 61 59 61 60 59 60 59 61
59 59 58 56 54 51 48 46 43 43 43 41 39 37 41 48 46 42 43 46 51 55 58 62 64 64 63 62 63 63 65 63 62 60 59 57 54 54 58 59 59 61 58
57 56 53 51 49 46 44 42 41 41 38 36 36 38 43 46 44 45 46 48 53 56 62 66 65 60 57 58 60 62 62 61 58 56 56 56 57 58 56 57 57 55 57
50 48 46 44 42 40 38 39 37 36 35 34 33 36 41 42 43 44 47 50 54 59 65 66 61 58 60 61 61 62 61 57 54 55 57 59 60 58 57 56 54 53 54
44 43 41 37 36 37 37 32 32 32 31 31 33 36 37 38 39 43 48 53 57 59 56 55 59 59 57 58 57 56 58 55 55 57 59 58 57 57 56 54 51 53 56
38 36 35 35 33 30 29 30 29 28 28 30 34 36 36 38 41 45 50 56 58 52 51 54 57 60 59 56 52 49 51 54 55 53 53 55 57 54 52 47 52 60 63
35 35 32 30 28 27 25 24 25 25 28 32 35 34 36 39 43 48 53 56 51 51 52 54 54 56 54 51 49 51 53 52 50 48 48 48 46 46 47 53 61 64 62
32 31 28 26 24 23 22 23 23 27 30 33 32 33 35 40 46 51 54 50 50 52 54 54 52 51 50 50 51 51 49 46 45 43 41 43 53 58 61 60 59 63 66
Wind_Direction_500mb
32 357 345 345 346 348 345 343 341 337 335 331 331 335 340 341 343 345 345 344 342 339 336 333 331 329 329 328 328 330 329 325 311 317 320 324 328 335 332 337 340 337 341
313 325 328 338 342 343 341 337 332 325 319 318 320 326 329 333 338 341 342 340 336 333 333 331 329 330 332 331 330 329 326 323 318 314 323 323 329 334 328 334 338 338 342
293 312 322 331 336 334 330 328 322 316 312 309 312 315 319 325 332 334 332 331 333 332 331 331 332 330 327 325 325 327 327 324 320 318 316 322 323 329 330 334 337 338 338
299 308 313 321 324 324 323 321 316 310 302 302 303 306 313 320 323 323 327 333 332 332 331 327 323 324 322 323 324 323 325 326 317 320 321 317 324 324 330 333 333 335 335
287 294 298 304 310 313 315 315 311 302 297 297 300 303 306 312 319 325 329 329 329 326 324 322 323 322 318 319 314 319 322 316 326 323 311 319 325 326 331 329 328 329 332
284 289 292 298 305 312 314 313 307 300 294 292 293 298 306 313 317 318 324 325 325 326 325 322 323 322 319 313 317 314 311 310 320 318 315 318 319 323 327 326 322 325 324
285 288 289 296 303 309 310 310 307 299 294 292 298 302 304 305 310 319 322 323 324 324 323 323 324 323 321 318 326 321 313 310 311 313 314 312 316 323 322 316 317 314 313
283 283 288 294 300 307 310 311 306 301 300 301 299 299 299 305 314 318 320 322 322 323 323 324 323 326 324 323 329 316 305 307 316 313 307 306 313 314 309 310 309 311 313
286 284 285 295 302 308 310 305 302 303 301 298 295 295 303 310 312 318 320 322 321 321 321 322 323 324 327 329 315 306 306 311 317 311 307 310 312 311 311 310 314 317 318
284 289 294 296 303 305 302 304 305 301 295 293 295 301 304 306 314 319 321 321 319 318 320 320 319 321 324 323 314 308 308 318 321 310 312 313 315 313 311 312 316 316 318
290 290 291 299 302 304 305 304 296 291 292 294 296 298 303 311 314 317 321 320 316 316 317 317 319 320 320 316 314 303 312 314 305 311 315 318 321 322 323 323 321 317 313
289 289 295 301 306 304 298 295 294 294 294 294 295 299 305 307 311 318 320 318 315 311 315 316 320 314 313 314 318 318 314 315 316 316 318 320 322 324 324 323 320 317 312
285 291 300 302 300 299 299 299 297 295 294 293 293 298 303 307 313 317 320 318 315 315 315 313 309 313 317 317 320 320 317 316 316 316 317 319 320 321 320 318 317 316 313
287 297 296 299 302 301 299 298 295 293 291 291 295 300 304 308 310 315 319 319 319 320 315 315 316 317 318 316 316 316 316 317 317 317 317 319 320 323 324 323 323 323 319
288 293 298 300 298 297 298 296 295 294 291 293 295 297 302 306 311 317 320 316 318 311 304 313 316 317 317 317 316 316 317 318 317 315 316 317 319 320 321 322 322 322 321
289 292 293 293 296 299 299 299 296 294 291 294 296 300 303 308 310 312 312 310 308 298 311 314 318 319 320 321 322 322 322 321 320 317 316 317 317 318 319 319 319 319 319
285 288 290 293 296 296 296 295 292 286 288 290 291 294 300 302 304 310 311 308 308 310 310 314 316 318 320 321 321 321 321 322 319 318 317 318 317 317 319 319 319 317 316
284 286 288 290 293 294 294 291 289 288 290 289 291 296 298 297 306 310 307 307 312 311 311 315 318 319 320 319 320 319 319 320 321 320 320 320 320 319 320 322 321 319 318
284 287 290 292 293 293 290 289 288 288 290 291 292 295 295 302 308 308 309 313 313 314 317 320 320 320 320 319 319 319 319 321 322 322 322 322 324 323 325 325 324 322 320
290 291 292 293 292 290 289 287 285 287 289 292 295 294 296 302 307 309 309 311 315 319 319 318 320 321 320 319 319 319 320 322 322 322 323 324 326 327 328 328 327 325 324
294 293 292 290 291 288 285 286 287 288 292 294 294 292 299 305 310 312 315 318 319 318 318 319 320 321 320 319 319 318 319 321 323 324 325 326 326 327 328 326 326 328 328
293 292 291 290 287 287 287 288 288 288 289 288 288 295 302 308 309 312 315 318 318 319 319 318 320 322 322 322 321 319 319 322 324 323 324 324 325 327 327 326 327 329 332
291 289 288 287 286 286 286 284 284 284 283 284 291 301 304 306 308 313 317 317 318 320 319 318 319 321 321 321 320 319 319 322 322 323 322 323 325 328 327 327 328 330 331
291 291 291 289 287 285 284 281 277 277 280 289 299 304 306 309 314 316 316 317 320 321 320 320 320 320 321 321 321 319 318 319 320 321 321 322 323 325 323 324 327 328 326
294 295 293 289 288 285 278 274 272 275 287 296 301 304 307 312 315 316 318 321 322 322 322 322 322 321 322 322 321 321 321 320 318 318 318 319 324 330 330 323 323 323 323
292 290 288 287 283 278 274 273 275 286 292 297 300 304 309 315 317 320 323 323 323 323 324 325 325 324 324 324 323 323 322 322 320 321 322 323 325 327 327 326 326 324 323
Wind_Speed_850mb
1 5 8 11 15 19 22 26 30 30 27 24 22 23 25 27 30 32 34 37 40 43 44 45 46 47 46 44 43 45 45 47 55 67 68 65 67 74 57 74 75 74 72
2 6 9 12 17 22 26 29 29 28 25 22 21 23 24 26 29 32 36 42 45 47 47 47 48 48 47 48 47 48 47 50 50 65 65 62 66 72 61 78 78 63 69
6 9 12 15 20 23 26 28 28 26 24 23 23 23 25 27 31 35 38 41 45 49 50 51 51 50 50 50 47 44 48 43 46 58 70 61 60 57 73 81 78 68 69
10 13 15 18 22 26 29 31 30 27 26 26 26 27 28 31 34 37 41 46 49 52 53 52 51 50 49 48 38 43 42 47 48 58 56 55 63 52 70 80 91 70 80
15 17 18 21 24 27 30 31 30 28 28 29 30 31 32 34 39 44 48 50 54 55 52 50 50 49 44 41 35 42 41 45 57 46 55 64 54 60 70 75 76 88 78
19 20 22 25 28 31 33 33 31 31 31 32 32 33 36 40 44 46 49 54 56 55 54 50 48 47 47 39 43 35 36 48 46 54 64 57 52 63 76 67 71 73 77
22 24 26 29 30 33 35 34 33 33 33 34 34 38 41 45 46 49 53 57 56 54 50 49 48 44 39 49 41 41 46 49 43 52 53 46 58 65 67 66 64 58 71
26 28 28 31 33 36 36 36 36 36 36 37 40 43 45 46 49 52 55 56 54 52 49 48 45 44 45 40 42 45 49 59 59 48 42 51 56 65 60 59 63 75 76
29 30 31 32 35 37 38 39 38 38 39 40 43 44 45 48 51 52 54 54 54 52 50 48 44 48 48 39 41 51 59 64 61 46 49 60 64 62 61 61 65 63 80
30 31 32 34 37 39 39 39 40 41 41 40 41 43 48 49 49 51 52 52 52 51 49 43 48 45 41 36 43 54 65 66 60 71 70 65 59 57 54 52 56 54 58
32 32 32 35 39 41 43 45 45 42 39 39 42 43 47 49 50 49 50 50 48 48 50 52 49 45 35 41 41 55 60 57 66 65 68 66 62 56 53 51 48 50 53
33 31 33 38 42 46 48 46 44 42 42 42 43 43 45 49 49 48 49 50 47 45 49 50 46 42 43 46 54 60 55 58 63 66 66 64 63 60 57 54 51 48 49
31 30 34 42 46 46 47 47 47 46 46 45 44 43 46 49 49 50 51 51 48 44 46 43 50 54 58 62 59 58 61 61 64 66 66 64 61 59 59 58 55 54 52
30 32 38 42 44 47 49 49 50 48 47 46 44 45 47 50 51 52 54 53 50 49 54 56 55 58 59 59 60 56 56 57 60 64 66 66 66 62 59 59 61 59 62
34 37 40 43 46 48 48 48 48 46 47 47 45 46 48 49 50 55 57 51 46 47 56 57 59 59 60 58 56 56 56 56 59 62 65 67 68 67 63 61 60 60 60
40 42 44 47 48 49 50 49 48 48 49 49 46 46 48 51 51 54 53 52 39 51 56 59 60 61 63 65 66 66 61 61 60 63 65 67 69 69 68 65 62 62 63
48 49 50 52 53 52 50 49 47 45 45 46 45 45 44 48 50 52 51 45 48 52 54 56 59 62 65 67 67 68 69 64 64 63 64 65 66 68 66 66 65 64 65
56 58 57 56 54 53 51 48 47 44 45 45 44 44 42 46 49 49 49 51 48 47 54 56 58 62 65 68 67 68 68 66 64 64 63 63 64 66 67 64 62 64 64
61 61 58 56 55 54 51 48 45 45 45 44 43 41 42 46 49 48 48 49 53 53 55 56 59 64 66 67 66 64 64 63 63 63 62 61 59 61 60 59 60 59 61
59 59 58 56 54 51 48 46 43 43 43 41 39 37 41 48 46 42 43 46 51 55 58 62 64 64 63 62 63 63 65 63 62 60 59 57 54 54 58 59 59 61 58
57 56 53 51 49 46 44 42 41 41 38 36 36 38 43 46 44 45 46 48 53 56 62 66 65 60 57 58 60 62 62 61 58 56 56 56 57 58 56 57 57 55 57
50 48 46 44 42 40 38 39 37 36 35 34 33 36 41 42 43 44 47 50 54 59 65 66 61 58 60 61 61 62 61 57 54 55 57 59 60 58 57 56 54 53 54
44 43 41 37 36 37 37 32 32 32 31 31 33 36 37 38 39 43 48 53 57 59 56 55 59 59 57 58 57 56 58 55 55 57 59 58 57 57 56 54 51 53 56
38 36 35 35 33 30 29 30 29 28 28 30 34 36 36 38 41 45 50 56 58 52 51 54 57 60 59 56 52 49 51 54 55 53 53 55 57 54 52 47 52 60 63
35 35 32 30 28 27 25 24 25 25 28 32 35 34 36 39 43 48 53 56 51 51 52 54 54 56 54 51 49 51 53 52 50 48 48 48 46 46 47 53 61 64 62
32 31 28 26 24 23 22 23 23 27 30 33 32 33 35 40 46 51 54 50 50 52 54 54 52 51 50 50 51 51 49 46 45 43 41 43 53 58 61 60 59 63 66
Wind_Direction_850mb
32 357 345 345 346 348 345 343 341 337 335 331 331 335 340 341 343 345 345 344 342 339 336 333 331 329 329 328 328 330 329 325 311 317 320 324 328 335 332 337 340 337 341
313 325 328 338 342 343 341 337 332 325 319 318 320 326 329 333 338 341 342 340 336 333 333 331 329 330 332 331 330 329 326 323 318 314 323 323 329 334 328 334 338 338 342
293 312 322 331 336 334 330 328 322 316 312 309 312 315 319 325 332 334 332 331 333 332 331 331 332 330 327 325 325 327 327 324 320 318 316 322 323 329 330 334 337 338 338
299 308 313 321 324 324 323 321 316 310 302 302 303 306 313 320 323 323 327 333 332 332 331 327 323 324 322 323 324 323 325 326 317 320 321 317 324 324 330 333 333 335 335
287 294 298 304 310 313 315 315 311 302 297 297 300 303 306 312 319 325 329 329 329 326 324 322 323 322 318 319 314 319 322 316 326 323 311 319 325 326 331 329 328 329 332
284 289 292 298 305 312 314 313 307 300 294 292 293 298 306 313 317 318 324 325 325 326 325 322 323 322 319 313 317 314 311 310 320 318 315 318 319 323 327 326 322 325 324
285 288 289 296 303 309 310 310 307 299 294 292 298 302 304 305 310 319 322 323 324 324 323 323 324 323 321 318 326 321 313 310 311 313 314 312 316 323 322 316 317 314 313
283 283 288 294 300 307 310 311 306 301 300 301 299 299 299 305 314 318 320 322 322 323 323 324 323 326 324 323 329 316 305 307 316 313 307 306 313 314 309 310 309 311 313
286 284 285 295 302 308 310 305 302 303 301 298 295 295 303 310 312 318 320 322 321 321 321 322 323 324 327 329 315 306 306 311 317 311 307 310 312 311 311 310 314 317 318
284 289 294 296 303 305 302 304 305 301 295 293 295 301 304 306 314 319 321 321 319 318 320 320 319 321 324 323 314 308 308 318 321 310 312 313 315 313 311 312 316 316 318
290 290 291 299 302 304 305 304 296 291 292 294 296 298 303 311 314 317 321 320 316 316 317 317 319 320 320 316 314 303 312 314 305 311 315 318 321 322 323 323 321 317 313
289 289 295 301 306 304 298 295 294 294 294 294 295 299 305 307 311 318 320 318 315 311 315 316 320 314 313 314 318 318 314 315 316 316 318 320 322 324 324 323 320 317 312
285 291 300 302 300 299 299 299 297 295 294 293 293 298 303 307 313 317 320 318 315 315 315 313 309 313 317 317 320 320 317 316 316 316 317 319 320 321 320 318 317 316 313
287 297 296 299 302 301 299 298 295 293 291 291 295 300 304 308 310 315 319 319 319 320 315 315 316 317 318 316 316 316 316 317 317 317 317 319 320 323 324 323 323 323 319
288 293 298 300 298 297 298 296 295 294 291 293 295 297 302 306 311 317 320 316 318 311 304 313 316 317 317 317 316 316 317 318 317 315 316 317 319 320 321 322 322 322 321
289 292 293 293 296 299 299 299 296 294 291 294 296 300 303 308 310 312 312 310 308 298 311 314 318 319 320 321 322 322 322 321 320 317 316 317 317 318 319 319 319 319 319
285 288 290 293 296 296 296 295 292 286 288 290 291 294 300 302 304 310 311 308 308 310 310 314 316 318 320 321 321 321 321 322 319 318 317 318 317 317 319 319 319 317 316
284 286 288 290 293 294 294 291 289 288 290 289 291 296 298 297 306 310 307 307 312 311 311 315 318 319 320 319 320 319 319 320 321 320 320 320 320 319 320 322 321 319 318
284 287 290 292 293 293 290 289 288 288 290 291 292 295 295 302 308 308 309 313 313 314 317 320 320 320 320 319 319 319 319 321 322 322 322 322 324 323 325 325 324 322 320
290 291 292 293 292 290 289 287 285 287 289 292 295 294 296 302 307 309 309 311 315 319 319 318 320 321 320 319 319 319 320 322 322 322 323 324 326 327 328 328 327 325 324
294 293 292 290 291 288 285 286 287 288 292 294 294 292 299 305 310 312 315 318 319 318 318 319 320 321 320 319 319 318 319 321 323 324 325 326 326 327 328 326 326 328 328
293 292 291 290 287 287 287 288 288 288 289 288 288 295 302 308 309 312 315 318 318 319 319 318 320 322 322 322 321 319 319 322 324 323 324 324 325 327 327 326 327 329 332
291 289 288 287 286 286 286 284 284 284 283 284 291 301 304 306 308 313 317 317 318 320 319 318 319 321 321 321 320 319 319 322 322 323 322 323 325 328 327 327 328 330 331
291 291 291 289 287 285 284 281 277 277 280 289 299 304 306 309 314 316 316 317 320 321 320 320 320 320 321 321 321 319 318 319 320 321 321 322 323 325 323 324 327 328 326
294 295 293 289 288 285 278 274 272 275 287 296 301 304 307 312 315 316 318 321 322 322 322 322 322 321 322 322 321 321 321 320 318 318 318 319 324 330 330 323 323 323 323
292 290 288 287 283 278 274 273 275 286 292 297 300 304 309 315 317 320 323 323 323 323 324 325 325 324 324 324 323 323 322 322 320 321 322 323 325 327 327 326 326 324 323